User: anonymous   Login
Location: Cisewo
(53.3833°N, 14.9000°E)
Time: 12:48:13
(UTC+00:00)
Language:

NOAA 18 - Orbit

View from above orbital plane
View from above orbital plane
View from above satellite
View from above satellite

Ground track
Ground track

The orbit data is extracted from the following two-line orbital elements,

1 28654U 05018A   21263.07412519  .00000064  00000-0  58672-4 0  9994
2 28654  98.9858 328.2773 0014405  19.4927 340.6792 14.12639134841897
Epoch (UTC): 20 September 2021 01:46:44
Eccentricity: 0.0014405
inclination: 98.9858°
perigee height: 840 km
apogee height: 861 km
right ascension of ascending node: 328.2773°
argument of perigee: 19.4927°
revolutions per day: 14.12639134
mean anomaly at epoch: 340.6792°
orbit number at epoch: 84189

The dashed part of the orbit path shows where the satellite is in the earth's shadow,  

DLR